Time,TemperatureF,DewpointF,PressureIn,WindDirection,WindDirectionDegrees,WindSpeedMPH,WindSpeedGustMPH,Humidity,HourlyPrecipIn,Conditions,Clouds,dailyrainin,SoftwareType,DateUTC
2013-01-07 00:02:00,33.0,-99.9,29.02,ENE,58,15.0,20.0,-999,-99.99,,,-99.99,,2013-01-07 09:02:00,
2013-01-07 00:12:00,33.0,-99.9,29.02,ENE,60,15.0,21.0,-999,-99.99,,,-99.99,,2013-01-07 09:12:00,
2013-01-07 00:23:00,33.0,-99.9,29.02,ENE,60,16.0,19.0,-999,-99.99,,,-99.99,,2013-01-07 09:23:00,
2013-01-07 00:32:00,33.0,-99.9,29.03,ENE,69,13.0,25.0,-999,-99.99,,,-99.99,,2013-01-07 09:32:00,
2013-01-07 00:42:00,33.0,-99.9,29.03,ENE,75,12.0,21.0,-999,-99.99,,,-99.99,,2013-01-07 09:42:00,
2013-01-07 00:53:00,33.0,-99.9,29.03,ENE,70,15.0,18.0,-999,-99.99,,,-99.99,,2013-01-07 09:53:00,
2013-01-07 01:02:00,33.0,-99.9,29.03,ENE,73,12.0,18.0,-999,-99.99,,,-99.99,,2013-01-07 10:02:00,
2013-01-07 01:12:00,33.0,-99.9,29.03,ENE,68,12.0,18.0,-999,-99.99,,,-99.99,,2013-01-07 10:12:00,
2013-01-07 01:22:00,33.0,-99.9,29.03,ENE,64,14.0,19.0,-999,-99.99,,,-99.99,,2013-01-07 10:22:00,
2013-01-07 01:33:00,32.0,-99.9,29.02,ENE,65,13.0,17.0,-999,-99.99,,,-99.99,,2013-01-07 10:33:00,
2013-01-07 01:43:00,33.0,-99.9,29.03,ENE,66,12.0,17.0,-999,-99.99,,,-99.99,,2013-01-07 10:43:00,
2013-01-07 01:53:00,33.0,-99.9,29.03,ENE,70,13.0,18.0,-999,-99.99,,,-99.99,,2013-01-07 10:53:00,
2013-01-07 02:02:00,32.0,-99.9,29.03,ENE,69,12.0,17.0,-999,-99.99,,,-99.99,,2013-01-07 11:02:00,
2013-01-07 02:12:00,32.0,-99.9,29.03,ENE,60,13.0,19.0,-999,-99.99,,,-99.99,,2013-01-07 11:12:00,
2013-01-07 02:23:00,32.0,-99.9,29.04,ENE,71,10.0,15.0,-999,-99.99,,,-99.99,,2013-01-07 11:23:00,
2013-01-07 02:33:00,33.0,-99.9,29.04,ENE,60,12.0,17.0,-999,-99.99,,,-99.99,,2013-01-07 11:33:00,
2013-01-07 02:43:00,33.0,-99.9,29.04,ENE,61,12.0,18.0,-999,-99.99,,,-99.99,,2013-01-07 11:43:00,
2013-01-07 02:53:00,33.0,-99.9,29.04,ENE,63,14.0,18.0,-999,-99.99,,,-99.99,,2013-01-07 11:53:00,
2013-01-07 03:03:00,33.0,-99.9,29.04,ENE,57,17.0,21.0,-999,-99.99,,,-99.99,,2013-01-07 12:03:00,
2013-01-07 03:13:00,33.0,-99.9,29.04,ENE,67,13.0,18.0,-999,-99.99,,,-99.99,,2013-01-07 12:13:00,
2013-01-07 03:23:00,33.0,-99.9,29.04,ENE,70,15.0,19.0,-999,-99.99,,,-99.99,,2013-01-07 12:23:00,
2013-01-07 03:33:00,33.0,-99.9,29.04,ENE,69,16.0,21.0,-999,-99.99,,,-99.99,,2013-01-07 12:33:00,
2013-01-07 03:43:00,33.0,-99.9,29.04,ENE,61,13.0,17.0,-999,-99.99,,,-99.99,,2013-01-07 12:43:00,
2013-01-07 03:53:00,33.0,-99.9,29.04,ENE,58,15.0,19.0,-999,-99.99,,,-99.99,,2013-01-07 12:53:00,
2013-01-07 04:03:00,33.0,-99.9,29.04,ENE,60,13.0,18.0,-999,-99.99,,,-99.99,,2013-01-07 13:03:00,
2013-01-07 04:12:00,33.0,-99.9,29.04,ENE,65,13.0,20.0,-999,-99.99,,,-99.99,,2013-01-07 13:12:00,
2013-01-07 04:23:00,33.0,-99.9,29.04,ENE,63,17.0,20.0,-999,-99.99,,,-99.99,,2013-01-07 13:23:00,
2013-01-07 04:33:00,33.0,-99.9,29.04,ENE,59,15.0,22.0,-999,-99.99,,,-99.99,,2013-01-07 13:33:00,
2013-01-07 04:43:00,33.0,-99.9,29.03,NE,53,14.0,19.0,-999,-99.99,,,-99.99,,2013-01-07 13:43:00,
2013-01-07 04:53:00,33.0,-99.9,29.03,ENE,58,16.0,23.0,-999,-99.99,,,-99.99,,2013-01-07 13:53:00,
2013-01-07 05:03:00,33.0,-99.9,29.04,NE,53,14.0,22.0,-999,-99.99,,,-99.99,,2013-01-07 14:03:00,
2013-01-07 05:13:00,33.0,-99.9,29.04,ENE,58,14.0,20.0,-999,-99.99,,,-99.99,,2013-01-07 14:13:00,
2013-01-07 05:23:00,34.0,-99.9,29.04,ENE,59,13.0,19.0,-999,-99.99,,,-99.99,,2013-01-07 14:23:00,
2013-01-07 05:33:00,34.0,-99.9,29.04,ENE,58,17.0,25.0,-999,-99.99,,,-99.99,,2013-01-07 14:33:00,
2013-01-07 05:43:00,34.0,-99.9,29.03,ENE,58,18.0,24.0,-999,-99.99,,,-99.99,,2013-01-07 14:43:00,
2013-01-07 05:53:00,34.0,-99.9,29.03,NE,51,16.0,23.0,-999,-99.99,,,-99.99,,2013-01-07 14:53:00,
2013-01-07 06:03:00,34.0,-99.9,29.04,ENE,58,15.0,21.0,-999,-99.99,,,-99.99,,2013-01-07 15:03:00,
2013-01-07 06:12:00,34.0,-99.9,29.04,NE,55,15.0,21.0,-999,-99.99,,,-99.99,,2013-01-07 15:12:00,
2013-01-07 06:23:00,34.0,-99.9,29.04,NE,53,17.0,23.0,-999,-99.99,,,-99.99,,2013-01-07 15:23:00,
2013-01-07 06:33:00,34.0,-99.9,29.04,ENE,57,18.0,24.0,-999,-99.99,,,-99.99,,2013-01-07 15:33:00,
2013-01-07 06:43:00,34.0,-99.9,29.04,NE,50,17.0,22.0,-999,-99.99,,,-99.99,,2013-01-07 15:43:00,
2013-01-07 06:53:00,33.0,-99.9,29.03,NE,54,18.0,25.0,-999,-99.99,,,-99.99,,2013-01-07 15:53:00,
2013-01-07 07:03:00,33.0,-99.9,29.04,NE,55,16.0,23.0,-999,-99.99,,,-99.99,,2013-01-07 16:03:00,
2013-01-07 07:12:00,33.0,-99.9,29.04,NE,54,14.0,22.0,-999,-99.99,,,-99.99,,2013-01-07 16:12:00,
2013-01-07 07:23:00,33.0,-99.9,29.04,NE,49,17.0,24.0,-999,-99.99,,,-99.99,,2013-01-07 16:23:00,
2013-01-07 07:33:00,33.0,-99.9,29.05,NE,52,16.0,21.0,-999,-99.99,,,-99.99,,2013-01-07 16:33:00,
2013-01-07 07:43:00,33.0,-99.9,29.05,NE,54,15.0,21.0,-999,-99.99,,,-99.99,,2013-01-07 16:43:00,
2013-01-07 07:53:00,33.0,-99.9,29.05,NE,52,17.0,22.0,-999,-99.99,,,-99.99,,2013-01-07 16:53:00,
2013-01-07 08:03:00,33.0,-99.9,29.05,NE,51,17.0,21.0,-999,-99.99,,,-99.99,,2013-01-07 17:03:00,
2013-01-07 08:12:00,33.0,-99.9,29.05,NE,48,17.0,22.0,-999,-99.99,,,-99.99,,2013-01-07 17:12:00,
2013-01-07 08:23:00,33.0,-99.9,29.06,NE,50,16.0,21.0,-999,-99.99,,,-99.99,,2013-01-07 17:23:00,
2013-01-07 08:33:00,33.0,-99.9,29.06,NE,53,16.0,25.0,-999,-99.99,,,-99.99,,2013-01-07 17:33:00,
2013-01-07 08:43:00,33.0,-99.9,29.06,NE,53,15.0,21.0,-999,-99.99,,,-99.99,,2013-01-07 17:43:00,
2013-01-07 08:53:00,33.0,-99.9,29.06,NE,55,15.0,22.0,-999,-99.99,,,-99.99,,2013-01-07 17:53:00,
2013-01-07 09:03:00,33.0,-99.9,29.06,NE,49,16.0,23.0,-999,-99.99,,,-99.99,,2013-01-07 18:03:00,
2013-01-07 09:13:00,33.0,-99.9,29.07,NE,52,17.0,26.0,-999,-99.99,,,-99.99,,2013-01-07 18:13:00,
2013-01-07 09:24:00,33.0,-99.9,29.07,NE,54,16.0,25.0,-999,-99.99,,,-99.99,,2013-01-07 18:24:00,
2013-01-07 09:33:00,33.0,-99.9,29.08,ENE,58,14.0,21.0,-999,-99.99,,,-99.99,,2013-01-07 18:33:00,
2013-01-07 09:43:00,33.0,-99.9,29.08,NE,56,17.0,22.0,-999,-99.99,,,-99.99,,2013-01-07 18:43:00,
2013-01-07 09:53:00,33.0,-99.9,29.08,NE,55,17.0,22.0,-999,-99.99,,,-99.99,,2013-01-07 18:53:00,
2013-01-07 10:03:00,33.0,-99.9,29.08,ENE,59,17.0,23.0,-999,-99.99,,,-99.99,,2013-01-07 19:03:00,
2013-01-07 10:12:00,33.0,-99.9,29.09,ENE,61,15.0,22.0,-999,-99.99,,,-99.99,,2013-01-07 19:12:00,
2013-01-07 10:23:00,33.0,-99.9,29.09,ENE,63,17.0,25.0,-999,-99.99,,,-99.99,,2013-01-07 19:23:00,
2013-01-07 10:33:00,33.0,-99.9,29.10,NE,56,16.0,22.0,-999,-99.99,,,-99.99,,2013-01-07 19:33:00,
2013-01-07 10:43:00,33.0,-99.9,29.10,NE,50,19.0,25.0,-999,-99.99,,,-99.99,,2013-01-07 19:43:00,
2013-01-07 10:53:00,33.0,-99.9,29.10,NE,51,16.0,22.0,-999,-99.99,,,-99.99,,2013-01-07 19:53:00,
2013-01-07 11:03:00,33.0,-99.9,29.10,NE,54,20.0,25.0,-999,-99.99,,,-99.99,,2013-01-07 20:03:00,
2013-01-07 11:13:00,33.0,-99.9,29.11,NE,53,18.0,24.0,-999,-99.99,,,-99.99,,2013-01-07 20:13:00,
2013-01-07 11:23:00,33.0,-99.9,29.11,ENE,60,15.0,21.0,-999,-99.99,,,-99.99,,2013-01-07 20:23:00,
2013-01-07 11:33:00,33.0,-99.9,29.11,NE,56,13.0,21.0,-999,-99.99,,,-99.99,,2013-01-07 20:33:00,
2013-01-07 11:43:00,33.0,-99.9,29.12,ENE,60,19.0,23.0,-999,-99.99,,,-99.99,,2013-01-07 20:43:00,
2013-01-07 11:53:00,33.0,-99.9,29.12,ENE,57,14.0,22.0,-999,-99.99,,,-99.99,,2013-01-07 20:53:00,
2013-01-07 12:03:00,33.0,-99.9,29.12,ENE,64,15.0,20.0,-999,-99.99,,,-99.99,,2013-01-07 21:03:00,
2013-01-07 12:12:00,33.0,-99.9,29.13,ENE,61,17.0,22.0,-999,-99.99,,,-99.99,,2013-01-07 21:12:00,
2013-01-07 12:23:00,33.0,-99.9,29.13,ENE,60,17.0,22.0,-999,-99.99,,,-99.99,,2013-01-07 21:23:00,
2013-01-07 12:33:00,33.0,-99.9,29.13,ENE,62,17.0,23.0,-999,-99.99,,,-99.99,,2013-01-07 21:33:00,
2013-01-07 12:43:00,33.0,-99.9,29.13,ENE,62,17.0,23.0,-999,-99.99,,,-99.99,,2013-01-07 21:43:00,
2013-01-07 12:53:00,33.0,-99.9,29.13,ENE,64,17.0,24.0,-999,-99.99,,,-99.99,,2013-01-07 21:53:00,
2013-01-07 13:03:00,33.0,-99.9,29.14,ENE,61,16.0,25.0,-999,-99.99,,,-99.99,,2013-01-07 22:03:00,
2013-01-07 13:12:00,33.0,-99.9,29.14,NE,52,17.0,24.0,-999,-99.99,,,-99.99,,2013-01-07 22:12:00,
2013-01-07 13:23:00,34.0,-99.9,29.15,ENE,60,16.0,21.0,-999,-99.99,,,-99.99,,2013-01-07 22:23:00,
2013-01-07 13:33:00,34.0,-99.9,29.15,ENE,57,16.0,20.0,-999,-99.99,,,-99.99,,2013-01-07 22:33:00,
2013-01-07 13:43:00,33.0,-99.9,29.15,ENE,59,16.0,21.0,-999,-99.99,,,-99.99,,2013-01-07 22:43:00,
2013-01-07 13:53:00,33.0,-99.9,29.15,ENE,62,18.0,22.0,-999,-99.99,,,-99.99,,2013-01-07 22:53:00,
2013-01-07 14:03:00,33.0,-99.9,29.16,ENE,62,15.0,24.0,-999,-99.99,,,-99.99,,2013-01-07 23:03:00,
2013-01-07 14:12:00,34.0,-99.9,29.17,ENE,59,17.0,23.0,-999,-99.99,,,-99.99,,2013-01-07 23:12:00,
2013-01-07 14:23:00,34.0,-99.9,29.17,NE,56,17.0,21.0,-999,-99.99,,,-99.99,,2013-01-07 23:23:00,
2013-01-07 14:33:00,34.0,-99.9,29.17,ENE,59,16.0,21.0,-999,-99.99,,,-99.99,,2013-01-07 23:33:00,
2013-01-07 14:43:00,34.0,-99.9,29.17,ENE,57,15.0,22.0,-999,-99.99,,,-99.99,,2013-01-07 23:43:00,
2013-01-07 14:53:00,34.0,-99.9,29.18,ENE,57,15.0,20.0,-999,-99.99,,,-99.99,,2013-01-07 23:53:00,
2013-01-07 15:03:00,34.0,-99.9,29.18,ENE,57,14.0,20.0,-999,-99.99,,,-99.99,,2013-01-08 00:03:00,
2013-01-07 15:12:00,34.0,-99.9,29.18,ENE,62,13.0,19.0,-999,-99.99,,,-99.99,,2013-01-08 00:12:00,
2013-01-07 15:23:00,34.0,-99.9,29.18,ENE,59,16.0,21.0,-999,-99.99,,,-99.99,,2013-01-08 00:23:00,
2013-01-07 15:33:00,34.0,-99.9,29.19,NE,55,15.0,23.0,-999,-99.99,,,-99.99,,2013-01-08 00:33:00,
2013-01-07 15:43:00,34.0,-99.9,29.19,NE,56,15.0,20.0,-999,-99.99,,,-99.99,,2013-01-08 00:43:00,
2013-01-07 15:53:00,34.0,-99.9,29.19,ENE,58,17.0,22.0,-999,-99.99,,,-99.99,,2013-01-08 00:53:00,
2013-01-07 16:03:00,34.0,-99.9,29.20,ENE,58,13.0,20.0,-999,-99.99,,,-99.99,,2013-01-08 01:03:00,
2013-01-07 16:12:00,34.0,-99.9,29.20,ENE,60,17.0,22.0,-999,-99.99,,,-99.99,,2013-01-08 01:12:00,
2013-01-07 16:22:00,34.0,-99.9,29.21,NE,52,16.0,22.0,-999,-99.99,,,-99.99,,2013-01-08 01:22:00,
2013-01-07 16:33:00,34.0,-99.9,29.21,ENE,59,15.0,21.0,-999,-99.99,,,-99.99,,2013-01-08 01:33:00,
2013-01-07 16:42:00,34.0,-99.9,29.21,NE,50,16.0,21.0,-999,-99.99,,,-99.99,,2013-01-08 01:42:00,
2013-01-07 16:53:00,34.0,-99.9,29.22,NE,50,15.0,20.0,-999,-99.99,,,-99.99,,2013-01-08 01:53:00,
2013-01-07 17:02:00,34.0,-99.9,29.22,NE,48,15.0,23.0,-999,-99.99,,,-99.99,,2013-01-08 02:02:00,
2013-01-07 17:12:00,34.0,-99.9,29.23,NE,49,13.0,19.0,-999,-99.99,,,-99.99,,2013-01-08 02:12:00,
2013-01-07 17:22:00,33.0,-99.9,29.23,NE,40,13.0,18.0,-999,-99.99,,,-99.99,,2013-01-08 02:22:00,
2013-01-07 17:33:00,33.0,-99.9,29.23,NE,42,14.0,18.0,-999,-99.99,,,-99.99,,2013-01-08 02:33:00,
2013-01-07 17:43:00,33.0,-99.9,29.23,NE,50,11.0,16.0,-999,-99.99,,,-99.99,,2013-01-08 02:43:00,
2013-01-07 17:53:00,33.0,-99.9,29.23,NE,51,12.0,19.0,-999,-99.99,,,-99.99,,2013-01-08 02:53:00,
2013-01-07 18:03:00,34.0,-99.9,29.24,NE,49,13.0,18.0,-999,-99.99,,,-99.99,,2013-01-08 03:03:00,
2013-01-07 18:12:00,34.0,-99.9,29.24,NE,47,13.0,17.0,-999,-99.99,,,-99.99,,2013-01-08 03:12:00,
2013-01-07 18:22:00,34.0,-99.9,29.24,NNE,30,10.0,16.0,-999,-99.99,,,-99.99,,2013-01-08 03:22:00,
2013-01-07 18:33:00,33.0,-99.9,29.25,NE,46,10.0,15.0,-999,-99.99,,,-99.99,,2013-01-08 03:33:00,
2013-01-07 18:43:00,33.0,-99.9,29.25,NE,45,14.0,19.0,-999,-99.99,,,-99.99,,2013-01-08 03:43:00,
2013-01-07 18:53:00,33.0,-99.9,29.25,NE,52,11.0,15.0,-999,-99.99,,,-99.99,,2013-01-08 03:53:00,
2013-01-07 19:02:00,32.0,-99.9,29.26,ENE,59,11.0,16.0,-999,-99.99,,,-99.99,,2013-01-08 04:02:00,
2013-01-07 19:12:00,32.0,-99.9,29.26,ENE,58,11.0,15.0,-999,-99.99,,,-99.99,,2013-01-08 04:12:00,
2013-01-07 19:22:00,32.0,-99.9,29.26,ENE,60,12.0,18.0,-999,-99.99,,,-99.99,,2013-01-08 04:22:00,
2013-01-07 19:33:00,32.0,-99.9,29.27,ENE,57,13.0,16.0,-999,-99.99,,,-99.99,,2013-01-08 04:33:00,
2013-01-07 19:43:00,33.0,-99.9,29.27,NE,56,13.0,18.0,-999,-99.99,,,-99.99,,2013-01-08 04:43:00,
2013-01-07 19:52:00,32.0,-99.9,29.27,NE,51,14.0,18.0,-999,-99.99,,,-99.99,,2013-01-08 04:52:00,
2013-01-07 20:04:00,32.0,-99.9,29.27,NE,48,14.0,19.0,-999,-99.99,,,-99.99,,2013-01-08 05:04:00,
2013-01-07 20:12:00,32.0,-99.9,29.27,NE,47,15.0,19.0,-999,-99.99,,,-99.99,,2013-01-08 05:12:00,
2013-01-07 20:22:00,32.0,-99.9,29.28,NE,50,16.0,20.0,-999,-99.99,,,-99.99,,2013-01-08 05:22:00,
2013-01-07 20:33:00,-999.0,-99.9,29.28,NE,54,15.0,19.0,-999,-99.99,,,-99.99,,2013-01-08 05:33:00,
2013-01-07 20:43:00,-999.0,-99.9,29.28,NE,52,14.0,19.0,-999,-99.99,,,-99.99,,2013-01-08 05:43:00,
2013-01-07 20:53:00,32.0,-99.9,29.29,NE,50,17.0,21.0,-999,-99.99,,,-99.99,,2013-01-08 05:53:00,
2013-01-07 21:03:00,32.0,-99.9,29.30,NE,49,14.0,19.0,-999,-99.99,,,-99.99,,2013-01-08 06:03:00,
2013-01-07 21:12:00,32.0,-99.9,29.30,NE,44,11.0,16.0,-999,-99.99,,,-99.99,,2013-01-08 06:12:00,
2013-01-07 21:22:00,-999.0,-99.9,29.30,NE,53,14.0,18.0,-999,-99.99,,,-99.99,,2013-01-08 06:22:00,
2013-01-07 21:33:00,-999.0,-99.9,29.31,NE,46,12.0,19.0,-999,-99.99,,,-99.99,,2013-01-08 06:33:00,
2013-01-07 21:43:00,-999.0,-99.9,29.32,NE,50,14.0,17.0,-999,-99.99,,,-99.99,,2013-01-08 06:43:00,
2013-01-07 21:53:00,32.0,-99.9,29.32,NE,50,13.0,17.0,-999,-99.99,,,-99.99,,2013-01-08 06:53:00,
2013-01-07 22:02:00,-999.0,-99.9,29.33,NE,55,12.0,15.0,-999,-99.99,,,-99.99,,2013-01-08 07:02:00,
2013-01-07 22:12:00,-999.0,-99.9,29.33,NE,48,11.0,15.0,-999,-99.99,,,-99.99,,2013-01-08 07:12:00,
2013-01-07 22:22:00,31.0,-99.9,29.34,NE,46,9.0,17.0,-999,-99.99,,,-99.99,,2013-01-08 07:22:00,
2013-01-07 22:32:00,-999.0,-99.9,29.34,NE,34,13.0,15.0,-999,-99.99,,,-99.99,,2013-01-08 07:32:00,
2013-01-07 22:42:00,31.0,-99.9,29.34,NE,38,10.0,15.0,-999,-99.99,,,-99.99,,2013-01-08 07:42:00,
2013-01-07 22:52:00,-999.0,-99.9,29.34,NE,38,10.0,18.0,-999,-99.99,,,-99.99,,2013-01-08 07:52:00,
2013-01-07 23:02:00,-999.0,-99.9,29.34,NE,44,12.0,15.0,-999,-99.99,,,-99.99,,2013-01-08 08:02:00,
2013-01-07 23:12:00,-999.0,-99.9,29.35,NE,52,10.0,14.0,-999,-99.99,,,-99.99,,2013-01-08 08:12:00,
2013-01-07 23:22:00,31.0,-99.9,29.36,NE,49,9.0,12.0,-999,-99.99,,,-99.99,,2013-01-08 08:22:00,
2013-01-07 23:32:00,-999.0,-99.9,29.36,NE,44,8.0,12.0,-999,-99.99,,,-99.99,,2013-01-08 08:32:00,
2013-01-07 23:42:00,-999.0,-99.9,29.37,ENE,60,7.0,10.0,-999,-99.99,,,-99.99,,2013-01-08 08:42:00,
2013-01-07 23:53:00,30.0,-99.9,29.37,ENE,59,9.0,13.0,-999,-99.99,,,-99.99,,2013-01-08 08:53:00,